Regional Weather Roundup
Issued by NWS

Home | Current Version | Previous Version | Graphics & Text | Print | Product List | Glossary On
Versions: 1 2 3 4 5 6 7 8 9 10 11 12 13 14 15 16 17 18 19 20 21 22 23 24 25 26 27 28 29 30 31 32 33 34 35 36 37 38 39 40 41 42 43 44 45 46 47 48 49 50
000
ASUS43 KLMK 282210
RWRKY
KENTUCKY REGIONAL WEATHER ROUNDUP
NATIONAL WEATHER SERVICE LOUISVILLE KY
500 PM EST SUN DEC 28 2014

NOTE "FAIR" INDICATES FEW OR NO CLOUDS BELOW 12,000 FEET
WITH NO SIGNIFICANT WEATHER AND/OR OBSTRUCTIONS TO VISIBILITY.

KYZ001>023-026-027-061>063-070>075-282300-
WESTERN AND SOUTH CENTRAL KENTUCKY

CITY           SKY/WX    TMP DP  RH WIND       PRES   REMARKS
PADUCAH        CLOUDY    36  30  79 N7        30.19S WCI  30
HENDERSON      CLOUDY    34  27  75 N7        30.21S WCI  28
OWENSBORO      CLOUDY    36  30  80 NE6       30.20S WCI  31
HOPKINSVILLE   CLOUDY    36  32  87 N6        30.19R WCI  31
BOWLING GREEN  CLOUDY    37  33  85 NW6       30.18R WCI  32
GLASGOW        CLOUDY    38  38 100 NW5       30.16R FOG     WCI  34
$$

KYZ024-025-028>034-038-045-046-053-282300-
NORTH CENTRAL KENTUCKY

CITY           SKY/WX    TMP DP  RH WIND       PRES   REMARKS
LOUISVILLE/SDF CLOUDY    37  30  75 N8        30.19R WCI  31
LOUISVILLE/LOU CLOUDY    36  29  75 N7        30.19R WCI  30
FORT KNOX      CLOUDY    35  31  85 NW6       30.17R WCI  30
$$

KYZ035>037-039>044-047>052-055>060-089>105-282300-
NORTHEAST KENTUCKY

CITY           SKY/WX    TMP DP  RH WIND       PRES   REMARKS
LEXINGTON      CLOUDY    36  34  92 N8        30.15R FOG     WCI  30
COVINGTON      CLOUDY    36  27  69 N8        30.15R WCI  30
FRANKFORT      CLOUDY    35  32  88 N6        30.15R WCI  30
$$

KYZ054-064>069-076>088-106>120-282300-
SOUTHEAST KENTUCKY

CITY           SKY/WX    TMP DP  RH WIND       PRES   REMARKS
JACKSON        LGT RAIN  41  39  93 CALM      30.09R VSB 1
LONDON         LGT RAIN  43  38  82 N7        30.10S
SOMERSET       LGT RAIN  39  39 100 CALM      30.14R
MIDDLESBORO    CLOUDY    48  47  94 N6        30.08R
MONTICELLO     CLOUDY    43  41  93 NW5       30.15R FOG
$$



USA.gov is the U.S. government's official web portal to all federal, state and local government web resources and services.